Flag for Uruguay Weather past 2 weeks in Minas, Uruguay

Now
64 °F

Passing clouds.


Feels Like: 64 °F
Forecast: N/A
Wind: 12 mph from South

Location: Capitan Corbeta

Current Time: Mar 27, 2015 at 6:20:42 PM

Latest Report: Mar 27, 2015 at 6:00 PM


Visibility: N/A

Pressure: 30.12 "Hg

Humidity: 68%

Dew point: 54 °F

Location of MinasLocation

Historic Weather in Minas — Graph

°F

Minas temperature yesterday

Maximum temperature yesterday: 70 °F (at 2:00 PM)
Minimum temperature yesterday: 63 °F (at 12:00 AM)
Average temperature yesterday: 65 °F

Past Weeks' High & Low Weather Summary

 TemperatureHumidityPressure
High90 °F (Mar 20, 2:00 PM)100% (Mar 16, 7:00 AM)30.18 "Hg (Mar 16, 7:00 AM)
Low46 °F (Mar 23, 6:00 AM)36% (Mar 20, 2:00 PM)29.71 "Hg (Mar 20, 2:00 PM)
Average68 °F70%30.01 "Hg
* Reported Mar 12 4:00 PM — Mar 27 4:00 PM, Minas, Weather by CustomWeather, © 2015

Note: Actual official high and low records may vary slightly from our data, if they occured in-between our weather recording intervals... More about our weather records

Advertising

Minas weather history for previous 24 hours

 ConditionsComfort  
Time TempWeatherWind HumidityBarometerVisibility
4:00 PM
Fri, Mar 27
68 °FScattered clouds.17 mph60%30.12 "HgN/A
3:00 PM70 °FScattered clouds.17 mph60%30.12 "HgN/A
2:00 PM70 °FPartly sunny.14 mph60%30.12 "HgN/A
1:00 PM70 °FPartly sunny.15 mph60%30.12 "HgN/A
12:00 PM70 °FPartly sunny.15 mph69%30.15 "HgN/A
11:00 AM68 °FPartly sunny.14 mph69%30.15 "HgN/A
10:00 AM68 °FScattered clouds.12 mph69%30.15 "HgN/A
9:00 AM68 °FScattered clouds.12 mph69%30.12 "HgN/A
8:00 AM63 °FScattered clouds.12 mph73%30.12 "HgN/A
7:00 AM63 °FPartly sunny.8 mph73%30.09 "HgN/A
6:00 AM61 °FScattered clouds.8 mph72%30.07 "HgN/A
4:00 AM63 °FPassing clouds.12 mph73%N/AN/A
3:00 AM64 °FPassing clouds.13 mph73%30.07 "HgN/A
2:00 AM64 °FPassing clouds.13 mph73%30.07 "HgN/A
12:00 AM64 °FPassing clouds.12 mph68%30.07 "HgN/A
10:00 PM
Thu, Mar 26
64 °FPassing clouds.15 mph68%30.07 "HgN/A
9:00 PM64 °FPassing clouds.16 mph68%30.07 "HgN/A
8:00 PM64 °FPassing clouds.12 mph64%30.04 "HgN/A
7:00 PM64 °FPassing clouds.17 mph64%30.04 "HgN/A
6:00 PM64 °FPartly cloudy.14 mph60%30.04 "HgN/A
Weather by CustomWeather, © 2015

See weather overviewHow to use our weather pages